Wind_Speed
28 30 31 33 33 34 35 36 37 38 39 39 40 42 43 44 46 47 48 49 50 51 51 52 52 52 53 53 53 53 53 52 51 51 50 49 47 45 42 39 38 38
29 31 32 32 33 33 34 35 36 37 37 39 40 42 44 45 47 48 49 50 51 51 52 52 53 53 53 53 54 54 53 53 52 52 51 51 50 48 46 42 39 38
29 30 30 31 32 33 34 35 36 36 38 39 41 42 44 46 47 48 49 50 51 51 52 53 53 53 53 53 54 54 54 54 53 53 52 52 52 51 49 46 43 40
28 29 30 31 32 33 34 35 36 38 39 40 42 43 45 47 48 50 51 52 53 53 54 54 54 55 54 54 54 54 54 54 54 54 54 54 54 54 52 50 47 44
28 29 30 31 33 34 35 36 38 39 40 41 43 45 46 48 49 51 53 54 55 56 57 57 56 56 56 55 55 55 55 55 55 54 55 56 56 56 55 53 50 48
29 30 31 32 33 35 36 38 39 41 42 43 44 46 47 49 51 53 55 56 58 59 60 60 60 59 58 57 56 56 55 55 55 55 56 57 57 57 56 55 53 51
31 32 32 33 35 36 38 39 41 42 43 45 46 48 50 52 54 55 57 58 60 61 62 63 63 62 61 60 59 58 57 56 56 56 56 57 58 58 58 57 55 53
33 34 34 35 36 37 39 41 42 44 45 47 48 50 52 54 56 57 59 60 62 64 65 66 66 65 64 63 62 60 59 58 57 57 58 58 59 59 58 57 56 54
35 35 36 36 37 38 40 42 44 45 47 48 50 52 54 56 57 59 61 62 64 66 68 68 68 68 66 65 64 62 61 60 59 59 59 60 60 59 59 58 57 56
37 37 38 38 39 40 41 43 45 46 48 49 51 53 55 57 59 60 62 64 66 68 70 71 70 69 67 66 65 64 63 63 62 62 61 61 60 59 59 58 57 57
38 39 40 41 41 42 43 44 46 47 48 50 52 54 56 57 59 62 64 66 68 71 73 73 73 71 69 67 66 65 65 65 65 65 64 63 61 60 60 60 59 58
39 40 41 43 44 45 45 46 47 48 49 51 53 55 57 59 61 63 66 68 70 73 74 75 74 73 71 68 66 65 65 66 67 67 66 65 64 63 63 62 62 60
39 41 42 43 45 46 47 48 49 50 51 52 54 56 58 60 62 65 67 69 72 74 75 74 73 73 71 69 67 66 66 66 67 68 67 67 67 68 67 66 64 62
40 41 42 44 45 47 48 49 50 51 52 54 56 58 59 61 63 65 67 70 72 73 73 73 72 72 71 70 69 68 68 68 68 69 69 70 70 70 70 69 67 65
41 42 43 45 46 47 48 50 51 52 53 55 57 58 60 62 64 66 68 71 73 73 73 72 72 72 71 70 70 69 69 69 69 69 70 71 71 71 71 69 68 66
42 43 44 46 47 48 49 50 51 52 54 55 57 59 61 63 65 67 70 72 73 73 73 73 73 73 72 71 71 71 70 69 69 68 69 70 71 71 70 69 68 67
43 44 45 46 48 49 50 51 51 53 54 56 57 59 61 63 66 69 72 74 74 74 74 74 74 74 73 73 72 72 71 70 69 68 69 69 70 70 70 69 68 67
45 46 47 48 49 50 50 51 52 53 54 56 58 60 62 64 67 71 73 75 75 75 74 74 74 74 74 74 74 73 72 71 70 69 69 69 70 71 70 69 69 67
47 48 49 49 50 51 51 52 53 54 55 57 59 61 63 66 69 73 75 76 76 75 74 74 75 75 75 75 74 74 72 71 71 70 70 70 70 70 70 69 69 68
49 49 50 51 51 52 53 53 54 55 57 58 60 62 65 68 71 74 76 77 77 76 75 75 75 76 77 76 75 74 73 72 72 71 71 71 71 70 69 69 68 68
49 50 51 52 53 54 54 55 56 57 58 59 61 64 67 70 73 75 77 78 78 77 76 76 76 77 78 78 77 75 73 72 72 72 71 71 71 71 70 69 69 68
50 51 52 54 55 56 56 57 57 58 59 60 62 65 68 71 74 77 79 79 79 78 77 77 77 78 78 78 77 75 74 73 72 73 73 72 72 72 71 70 70 70
52 53 54 55 57 57 58 58 59 59 60 61 64 66 69 73 76 78 79 80 80 79 79 78 78 79 79 79 79 77 76 74 74 74 74 73 73 72 72 71 71 71
53 54 55 57 58 59 59 60 60 61 61 63 65 68 71 74 77 79 80 81 80 80 80 79 79 80 81 81 81 80 77 76 75 74 73 73 72 72 72 72 71 71
55 55 56 58 59 60 61 61 61 62 63 65 67 70 73 76 79 81 81 82 82 81 81 81 82 82 84 84 84 82 79 76 75 73 71 70 70 70 71 72 71 71
55 57 58 59 60 61 62 62 63 64 65 67 69 72 75 78 81 82 83 83 83 83 82 83 84 85 86 87 86 84 81 77 75 73 70 68 68 69 70 71 72 72
Wind_Direction
349 351 352 353 353 352 351 349 349 348 347 346 344 343 342 342 341 341 340 338 336 334 332 331 329 328 327 326 326 325 325 324 324 324 324 324 323 321 319 317 313 309
353 354 353 353 352 351 351 350 351 350 349 348 347 346 346 345 345 344 342 340 338 336 334 331 330 328 326 325 325 324 324 324 324 324 324 324 323 322 321 319 317 313
354 353 352 351 351 351 351 351 351 350 350 349 348 347 346 346 346 345 344 342 340 338 335 333 331 329 327 326 325 325 324 324 324 324 324 324 324 323 322 321 320 317
352 351 350 350 350 350 349 349 349 349 349 348 347 346 345 345 345 344 344 343 342 340 338 336 333 331 329 327 326 325 325 325 324 324 324 324 323 323 322 322 321 320
348 348 349 348 348 347 347 346 346 346 346 345 345 344 344 343 343 343 342 342 342 341 339 338 336 333 331 329 327 326 325 325 324 324 324 323 323 322 322 322 321 321
344 345 345 345 344 343 343 343 343 343 343 343 342 342 342 341 341 341 341 341 341 340 339 338 337 334 332 330 328 326 325 325 325 324 324 323 322 321 321 321 321 321
340 341 341 341 340 339 339 339 340 340 340 340 340 339 339 339 339 339 339 339 339 339 339 338 336 335 333 331 329 328 326 325 325 324 324 322 321 321 321 321 321 321
337 337 337 337 336 336 336 336 337 337 337 337 337 337 336 337 337 337 337 337 337 337 337 337 336 335 333 332 330 329 327 326 326 325 324 323 322 321 321 321 321 321
333 333 333 333 333 334 334 334 335 335 335 335 335 334 334 335 335 335 335 335 335 335 336 335 335 334 333 332 330 329 328 327 326 326 325 324 322 321 321 321 321 321
330 330 330 330 331 332 333 333 333 333 333 333 333 333 332 332 332 333 333 334 334 334 334 334 334 333 332 331 330 329 328 327 327 326 325 324 322 321 321 321 321 321
328 328 329 329 330 331 332 331 331 331 332 332 331 330 330 330 331 332 332 332 333 333 333 333 332 332 332 331 330 329 328 328 327 326 324 323 321 322 322 322 321 321
328 328 328 329 329 330 330 330 330 330 331 330 329 329 329 330 331 331 331 332 332 332 332 332 331 331 331 330 330 329 328 327 326 324 323 323 323 323 323 322 321 321
328 328 328 328 328 328 328 328 329 329 330 329 328 328 329 330 330 330 330 331 331 331 331 330 329 329 329 329 329 328 328 326 324 323 323 323 323 323 322 322 321 320
330 329 328 328 327 327 327 328 328 328 328 328 327 328 328 329 329 329 330 330 329 329 329 329 328 328 328 329 328 328 327 326 324 324 323 323 322 321 320 320 319 319
332 331 330 329 328 327 328 328 328 327 327 326 327 327 327 328 328 328 328 328 328 328 329 329 329 328 328 328 327 327 326 325 324 324 322 320 319 318 318 318 318 318
335 334 332 331 330 329 329 328 327 326 326 326 326 326 327 327 327 327 328 328 329 329 329 329 328 327 327 327 327 326 325 325 325 323 320 318 317 316 316 316 316 316
337 336 334 333 332 331 330 328 327 326 325 325 325 325 326 326 327 328 328 328 329 329 329 328 327 327 327 327 327 326 326 326 325 322 319 318 316 315 315 315 315 315
338 337 336 335 334 332 330 328 327 326 325 325 325 325 326 326 327 328 328 329 329 329 328 327 327 327 328 328 327 327 326 326 324 322 320 318 317 316 315 315 314 313
338 338 337 336 334 332 330 329 327 326 326 325 325 325 326 326 328 329 329 330 329 328 328 327 327 327 328 328 328 327 326 325 324 323 321 319 317 315 315 314 313 312
337 336 336 335 334 332 331 329 328 327 326 326 325 325 326 327 329 330 330 329 329 328 327 327 327 328 329 329 328 327 327 325 324 322 321 319 317 315 315 314 312 312
335 334 334 334 334 333 331 330 329 328 327 326 326 326 327 329 330 330 330 329 329 328 327 327 328 328 329 329 329 328 326 325 324 323 321 320 318 317 316 314 313 312
334 334 334 334 334 333 332 330 329 328 327 326 326 327 328 329 330 330 330 329 328 328 328 328 328 328 329 329 329 328 327 326 325 324 322 321 319 317 316 315 313 312
334 334 334 334 333 332 331 330 329 329 328 327 327 328 329 330 330 330 330 329 328 328 328 328 328 328 329 330 330 329 328 327 326 324 323 321 319 317 316 315 313 312
334 334 333 333 332 332 331 331 330 329 328 328 328 329 329 330 330 330 329 329 329 329 328 329 329 329 330 331 331 329 328 327 326 324 322 320 318 317 315 314 312 311
333 333 332 332 332 332 332 331 330 329 329 328 329 329 330 330 330 329 330 330 330 329 329 329 330 330 331 332 331 329 328 327 324 323 321 319 317 316 315 313 312 311
332 332 332 332 332 332 332 331 331 330 330 330 330 330 329 329 329 330 331 331 330 330 330 330 331 331 332 332 331 329 327 326 323 322 321 319 318 317 316 314 313 312
Height
10633 10630 10627 10624 10622 10619 10617 10614 10612 10609 10606 10603 10600 10597 10594 10590 10586 10582 10579 10575 10571 10567 10563 10560 10556 10552 10548 10544 10540 10536 10532 10529 10525 10522 10518 10515 10511 10508 10505 10502 10498 10493
10631 10628 10626 10623 10621 10618 10616 10613 10610 10608 10605 10602 10598 10595 10591 10587 10583 10580 10576 10572 10568 10565 10561 10557 10553 10549 10544 10540 10536 10532 10528 10524 10520 10517 10513 10509 10506 10502 10499 10496 10492 10488
10630 10628 10625 10623 10620 10617 10614 10611 10609 10606 10603 10599 10596 10592 10588 10585 10581 10577 10574 10570 10566 10562 10558 10553 10549 10545 10540 10536 10531 10527 10523 10519 10514 10511 10507 10503 10500 10496 10493 10489 10486 10482
10629 10627 10624 10622 10618 10615 10613 10610 10607 10603 10600 10597 10593 10590 10586 10582 10578 10574 10570 10566 10562 10558 10554 10549 10545 10540 10536 10531 10527 10522 10518 10513 10509 10505 10501 10497 10494 10490 10486 10483 10479 10475
10628 10626 10623 10620 10617 10614 10611 10608 10604 10601 10598 10594 10591 10587 10583 10579 10575 10571 10567 10562 10558 10554 10549 10545 10540 10536 10531 10526 10522 10517 10512 10508 10503 10499 10495 10491 10487 10483 10479 10475 10472 10468
10627 10624 10621 10618 10615 10612 10609 10605 10602 10598 10595 10591 10587 10583 10579 10575 10571 10566 10562 10558 10553 10549 10545 10540 10536 10531 10526 10522 10517 10512 10507 10502 10497 10493 10489 10484 10480 10476 10472 10468 10464 10461
10625 10622 10619 10616 10613 10610 10606 10603 10599 10595 10591 10587 10583 10579 10575 10571 10566 10562 10557 10553 10548 10544 10539 10535 10530 10525 10521 10516 10511 10505 10500 10496 10491 10486 10482 10478 10474 10469 10465 10461 10457 10453
10623 10620 10617 10614 10611 10608 10604 10600 10596 10592 10588 10583 10579 10575 10570 10566 10562 10558 10553 10549 10544 10539 10534 10530 10524 10519 10514 10509 10504 10499 10494 10489 10484 10480 10475 10471 10467 10463 10458 10454 10450 10446
10621 10618 10615 10612 10609 10606 10601 10597 10593 10589 10584 10580 10575 10571 10567 10562 10558 10554 10550 10545 10540 10535 10530 10525 10520 10514 10509 10503 10498 10493 10487 10483 10478 10473 10468 10464 10460 10456 10451 10447 10443 10438
10619 10616 10613 10610 10606 10603 10599 10594 10590 10585 10581 10577 10572 10568 10564 10560 10555 10551 10546 10541 10536 10530 10525 10519 10514 10509 10504 10499 10493 10487 10481 10476 10471 10466 10462 10457 10453 10449 10444 10440 10435 10431
10616 10613 10610 10607 10603 10599 10595 10591 10587 10583 10578 10574 10570 10566 10562 10557 10552 10547 10541 10536 10530 10525 10519 10513 10507 10502 10497 10492 10487 10481 10474 10468 10463 10459 10455 10450 10446 10442 10437 10432 10428 10423
10614 10610 10607 10603 10599 10595 10591 10587 10584 10579 10575 10571 10567 10563 10558 10553 10547 10542 10536 10530 10525 10519 10512 10506 10500 10495 10490 10486 10481 10476 10470 10464 10458 10453 10448 10443 10438 10433 10429 10424 10420 10415
10611 10607 10603 10599 10595 10592 10588 10584 10580 10576 10572 10568 10564 10559 10554 10548 10543 10537 10531 10525 10520 10514 10508 10502 10495 10490 10485 10480 10475 10470 10465 10459 10453 10446 10441 10435 10429 10424 10420 10415 10411 10407
10608 10604 10600 10596 10592 10589 10585 10581 10576 10572 10568 10564 10559 10554 10549 10544 10539 10534 10528 10522 10516 10510 10504 10498 10491 10484 10478 10473 10468 10462 10457 10452 10446 10439 10432 10426 10421 10416 10412 10407 10402 10398
10605 10601 10597 10593 10590 10586 10582 10578 10573 10569 10565 10560 10555 10550 10545 10540 10535 10530 10525 10519 10512 10505 10498 10491 10484 10478 10473 10467 10462 10456 10451 10446 10439 10432 10425 10419 10413 10408 10404 10399 10394 10389
10602 10598 10595 10591 10588 10583 10579 10575 10570 10566 10561 10557 10551 10546 10541 10536 10531 10526 10520 10513 10506 10499 10492 10485 10478 10472 10466 10461 10455 10449 10444 10439 10433 10426 10419 10412 10406 10400 10395 10390 10385 10379
10600 10597 10593 10589 10585 10580 10576 10571 10567 10563 10558 10553 10548 10543 10538 10532 10527 10521 10514 10507 10500 10493 10485 10478 10471 10465 10459 10454 10447 10441 10436 10430 10425 10418 10412 10405 10397 10391 10386 10380 10375 10370
10598 10594 10590 10586 10581 10577 10572 10568 10564 10559 10555 10549 10544 10539 10534 10528 10522 10516 10509 10501 10494 10487 10479 10472 10465 10459 10453 10446 10440 10433 10427 10421 10416 10410 10403 10396 10389 10382 10377 10371 10366 10361
10594 10590 10586 10582 10578 10573 10569 10565 10560 10555 10550 10545 10540 10535 10529 10524 10517 10509 10501 10494 10487 10481 10474 10466 10458 10452 10445 10439 10433 10426 10419 10413 10406 10400 10394 10387 10380 10374 10368 10362 10356 10351
10591 10587 10583 10579 10575 10570 10565 10560 10556 10551 10545 10540 10535 10530 10524 10518 10510 10502 10495 10487 10480 10473 10466 10458 10451 10444 10437 10431 10424 10417 10411 10404 10397 10391 10385 10378 10371 10364 10359 10353 10347 10341
10589 10585 10580 10576 10571 10566 10561 10555 10551 10546 10541 10536 10530 10524 10518 10511 10504 10496 10488 10480 10473 10466 10459 10451 10443 10436 10429 10422 10416 10409 10403 10396 10389 10382 10375 10368 10360 10354 10348 10342 10336 10331
10586 10581 10576 10571 10566 10561 10556 10551 10546 10542 10537 10531 10525 10518 10511 10504 10497 10489 10481 10473 10466 10458 10451 10444 10436 10428 10421 10415 10408 10401 10394 10387 10380 10372 10365 10357 10350 10343 10337 10331 10324 10319
10581 10576 10571 10566 10561 10557 10552 10547 10542 10537 10532 10526 10520 10513 10506 10498 10491 10483 10475 10467 10459 10450 10443 10436 10429 10421 10414 10406 10398 10390 10383 10377 10370 10363 10355 10348 10340 10333 10327 10321 10314 10308
10577 10572 10567 10562 10558 10553 10548 10543 10538 10532 10526 10520 10514 10507 10500 10492 10485 10477 10469 10460 10452 10443 10435 10428 10420 10412 10404 10396 10387 10379 10373 10367 10361 10354 10347 10339 10332 10325 10317 10311 10305 10299
10573 10568 10564 10559 10554 10549 10544 10538 10533 10527 10521 10514 10507 10501 10493 10486 10479 10471 10462 10453 10444 10435 10427 10418 10411 10402 10394 10386 10377 10369 10363 10358 10352 10346 10341 10333 10324 10317 10309 10300 10293 10288
10569 10564 10560 10555 10549 10544 10538 10533 10527 10521 10515 10508 10501 10494 10487 10480 10472 10463 10454 10444 10435 10426 10418 10409 10401 10393 10384 10376 10367 10358 10352 10347 10340 10335 10330 10324 10316 10308 10300 10291 10281 10274